Location: Camerons Lookout
(40.9833°S, 175.9333°E)
Time: 17:38:04
(UTC+00:00)

Cosmos 1346 Rocket - Pass Details

Date: 14 January 2026
Orbit: 476 x 487 km, 81.2° (Epoch: 18 February)

Event Time Altitude Azimuth Distance (km) Brightness Sun altitude
Rises 10:46:50 0° 189° (S) 2,610 7.5 -23.7°
Reaches altitude 10° 10:48:59 10° 187° (S) 1,718 6.3 -23.9°
Enters shadow 10:52:04 57° 173° (S) 597 3.1 -24.1°
